TimeCST,TemperatureF,Dew PointF,Humidity,Sea Level PressureIn,VisibilityMPH,Wind Direction,Wind SpeedMPH,Gust SpeedMPH,PrecipitationIn,Events,Conditions,WindDirDegrees,DateUTC
12:52 AM,17.1,10.0,74,29.80,10.0,WNW,28.8,38.0,N/A,,Overcast,290,2013-02-19 06:52:00
1:38 AM,15.8,8.6,73,29.80,10.0,West,32.2,40.3,N/A,,Overcast,280,2013-02-19 07:38:00
1:52 AM,15.1,7.0,70,29.83,10.0,West,31.1,42.6,N/A,,Overcast,280,2013-02-19 07:52:00
2:38 AM,14.0,6.8,73,29.81,7.0,West,35.7,42.6,0.00,Snow,Light Snow,280,2013-02-19 08:38:00
2:52 AM,14.0,6.1,71,29.84,6.0,WNW,33.4,42.6,0.00,Snow,Light Snow,290,2013-02-19 08:52:00
3:01 AM,14.0,6.8,73,29.82,9.0,WNW,29.9,41.4,0.00,Snow,Light Snow,290,2013-02-19 09:01:00
3:52 AM,10.9,3.9,73,29.87,10.0,WNW,27.6,40.3,0.00,,Mostly Cloudy,290,2013-02-19 09:52:00
4:45 AM,10.4,3.2,73,29.86,10.0,WNW,29.9,39.1,N/A,,Overcast,290,2013-02-19 10:45:00
4:52 AM,10.9,3.9,73,29.90,10.0,WNW,28.8,36.8,N/A,,Mostly Cloudy,290,2013-02-19 10:52:00
5:06 AM,10.4,3.2,73,29.87,10.0,WNW,27.6,36.8,N/A,,Scattered Clouds,290,2013-02-19 11:06:00
5:20 AM,10.4,3.2,73,29.87,10.0,WNW,27.6,36.8,N/A,,Mostly Cloudy,290,2013-02-19 11:20:00
5:47 AM,8.6,1.4,73,29.88,10.0,WNW,32.2,40.3,N/A,,Scattered Clouds,290,2013-02-19 11:47:00
5:52 AM,9.0,1.9,73,29.92,10.0,WNW,31.1,38.0,N/A,,Partly Cloudy,290,2013-02-19 11:52:00
6:52 AM,8.1,-0.0,70,29.95,10.0,WNW,28.8,39.1,N/A,,Partly Cloudy,290,2013-02-19 12:52:00
7:50 AM,6.8,-0.4,72,29.95,7.0,WNW,26.5,35.7,N/A,,Mostly Cloudy,290,2013-02-19 13:50:00
7:52 AM,7.0,-0.0,73,29.99,8.0,WNW,27.6,35.7,N/A,,Scattered Clouds,300,2013-02-19 13:52:00
8:42 AM,6.8,-0.4,72,29.98,8.0,WNW,23.0,34.5,N/A,,Mostly Cloudy,290,2013-02-19 14:42:00
8:52 AM,7.0,-0.0,73,30.03,10.0,WNW,28.8,33.4,N/A,,Mostly Cloudy,290,2013-02-19 14:52:00
9:52 AM,9.0,1.9,73,30.05,7.0,WNW,27.6,35.7,N/A,,Overcast,290,2013-02-19 15:52:00
10:52 AM,10.9,3.0,70,30.06,9.0,WNW,26.5,36.8,N/A,,Mostly Cloudy,290,2013-02-19 16:52:00
12:52 PM,15.1,7.0,70,30.09,10.0,WNW,24.2,34.5,N/A,,Overcast,290,2013-02-19 18:52:00
1:43 PM,15.8,6.8,68,30.05,10.0,WNW,24.2,34.5,N/A,,Scattered Clouds,290,2013-02-19 19:43:00
1:52 PM,18.0,9.0,68,30.09,10.0,WNW,23.0,39.1,N/A,,Scattered Clouds,290,2013-02-19 19:52:00
2:52 PM,19.0,10.0,68,30.09,10.0,WNW,27.6,35.7,N/A,,Partly Cloudy,290,2013-02-19 20:52:00
3:52 PM,19.9,9.0,62,30.13,10.0,WNW,26.5,34.5,N/A,,Clear,290,2013-02-19 21:52:00
4:52 PM,19.0,9.0,65,30.15,10.0,WNW,24.2,34.5,N/A,,Partly Cloudy,290,2013-02-19 22:52:00
6:52 PM,16.0,7.0,68,30.20,10.0,WNW,19.6,-,N/A,,Clear,290,2013-02-20 00:52:00
7:52 PM,14.0,6.1,71,30.23,10.0,WNW,13.8,-,N/A,,Clear,300,2013-02-20 01:52:00
8:52 PM,12.9,5.0,71,30.25,10.0,NW,21.9,27.6,N/A,,Clear,320,2013-02-20 02:52:00
9:52 PM,10.0,1.9,70,30.29,10.0,NNW,21.9,28.8,N/A,,Clear,330,2013-02-20 03:52:00
10:52 PM,7.0,-0.0,73,30.31,10.0,NW,15.0,-,N/A,,Clear,320,2013-02-20 04:52:00
11:52 PM,6.1,-0.9,73,30.34,10.0,NW,12.7,-,N/A,,Clear,320,2013-02-20 05:52:00